Location: Couloutre
(47.4081°N, 3.2259°E)
Time: 08:36:05
(UTC+00:00)

Meteor 1-19 Rocket - Pass Details

Date: 27 February 2020
Orbit: 814 x 921 km, 81.2° (Epoch: 31 March)

Event Time Altitude Azimuth Distance (km) Brightness Sun altitude
Rises 19:00:59 0° 348° (NNW) 3,507 7.7 -16.4°
Reaches altitude 10° 19:03:29 10° 348° (NNW) 2,548 6.9 -16.9°
Maximum altitude 19:09:17 86° 261° (W) 870 4.2 -17.8°
Drops below altitude 10° 19:14:52 10° 172° (S) 2,457 6.5 -18.8°
Sets 19:17:14 0° 172° (S) 3,373 7.2 -19.2°
